Last 48 Hours

Stanford Met Tower

Hourly Data | America/Los_Angeles
as of 5/5/26 7:38 PM PDT
Date & Time Temp (°F) RH (%) Dew Pt (°F) Wind Dir (°) Wind Spd (mph) Wind Gust (mph) Solar Rad (W/m2) Pressure (mb) NowCast AQI Value (AQI) NowCast AQI Status Latest Rain (In) Daily Rain (In) Daily Min Temp (°F) Daily Max Temp (°F)
5/5/26 - 1900 60.0 70 51.2 WSW | 244 4.7 10.1 69 1,018.2 4 Good 0.00 0.01 51.0 63.5
5/5/26 - 1800 60.3 69 51.2 WSW | 241 5.7 12.5 103 1,018.2 4 Good 0.00 0.01 51.0 63.5
5/5/26 - 1700 61.2 67 51.2 W | 264 6.1 13.3 122 1,017.7 5 Good 0.00 0.01 51.0 63.5
5/5/26 - 1600 62.4 63 50.7 WNW | 288 4.2 9.8 268 1,017.6 5 Good 0.00 0.01 51.0 63.5
5/5/26 - 1500 61.4 65 50.4 NW | 313 5.8 11.3 309 1,017.9 5 Good 0.00 0.01 51.0 62.6
5/5/26 - 1400 61.2 64 50.1 NW | 306 5.8 14.2 294 1,018.1 5 Good 0.00 0.01 51.0 61.8
5/5/26 - 1300 60.0 69 50.8 W | 280 5.9 12.4 446 1,018.2 5 Good 0.00 0.01 51.0 61.8
5/5/26 - 1200 58.0 76 51.6 W | 271 5.5 12.5 253 1,018.6 5 Good 0.00 0.01 51.0 59.0
5/5/26 - 1100 56.6 79 51.2 WNW | 287 2.7 12.8 142 1,018.7 6 Good 0.00 0.01 51.0 57.7
5/5/26 - 1000 55.6 78 49.9 W | 267 0.6 3.0 108 1,018.4 6 Good 0.00 0.01 51.0 56.4
5/5/26 - 0900 54.4 86 51.1 ENE | 59 0.5 2.1 93 1,018.3 4 Good 0.00 0.01 51.0 55.8
5/5/26 - 0800 52.4 93 51.4 S | 184 1.7 4.7 54 1,017.9 4 Good 0.00 0.01 51.0 54.1
5/5/26 - 0700 51.3 95 50.8 SSW | 202 1.7 5.3 5 1,017.8 4 Good 0.00 0.01 51.0 54.1
5/5/26 - 0600 51.3 94 50.8 SSE | 168 2.3 4.7 0 1,017.4 3 Good 0.00 0.01 51.1 54.1
5/5/26 - 0500 51.4 92 50.0 SSW | 207 0.6 2.4 0 1,017.5 3 Good 0.01 0.01 51.1 54.1
5/5/26 - 0400 52.2 85 48.9 SSW | 211 2.1 4.4 0 1,017.7 4 Good 0.00 0.00 51.5 54.1
5/5/26 - 0300 52.7 78 47.2 WSW | 257 2.6 5.9 0 1,017.8 4 Good 0.00 0.00 52.4 54.1
5/5/26 - 0200 53.4 74 46.2 WSW | 257 3.4 7.9 0 1,018.1 4 Good 0.00 0.00 53.0 54.1
5/5/26 - 0100 54.0 73 46.5 WNW | 295 4.4 10.5 0 1,018.4 4 Good 0.00 0.00 46.2 65.5
5/5/26 - 0000 54.1 76 47.6 NW | 312 3.5 7.6 0 1,018.2 4 Good 0.00 0.00 46.2 65.5
5/4/26 - 2300 54.7 78 48.9 NW | 306 5.2 14.6 0 1,017.9 4 Good 0.00 0.00 46.2 65.5
5/4/26 - 2200 55.4 78 49.7 NW | 314 4.6 11.1 0 1,018.5 4 Good 0.00 0.00 46.2 65.5
5/4/26 - 2100 56.2 73 48.7 NW | 310 5.1 10.5 0 1,017.8 4 Good 0.00 0.00 46.2 65.5
5/4/26 - 2000 57.8 64 46.6 WNW | 297 4.8 10.4 20 1,017.2 4 Good 0.00 0.00 46.2 65.5
5/4/26 - 1900 59.2 61 46.8 NW | 314 6.1 12.4 78 1,017.0 4 Good 0.00 0.00 46.2 65.5
5/4/26 - 1800 60.2 60 47.3 NW | 322 5.8 13.3 75 1,017.2 4 Good 0.00 0.00 46.2 65.5
5/4/26 - 1700 61.9 60 48.6 WSW | 240 6.5 12.9 234 1,016.9 4 Good 0.00 0.00 46.2 65.5
5/4/26 - 1600 62.8 61 50.0 WSW | 241 7.9 15.2 528 1,016.6 4 Good 0.00 0.00 46.2 65.5
5/4/26 - 1500 63.2 60 50.1 WSW | 244 9.4 17.0 848 1,016.7 5 Good 0.00 0.00 46.2 65.5
5/4/26 - 1400 62.1 61 49.6 SW | 236 7.6 14.5 610 1,017.1 4 Good 0.00 0.00 46.2 63.6
5/4/26 - 1300 60.8 62 48.7 W | 267 4.6 10.4 360 1,017.5 4 Good 0.00 0.00 46.2 62.7
5/4/26 - 1200 59.9 63 48.3 WNW | 288 3.8 9.5 202 1,017.8 4 Good 0.00 0.00 46.2 61.3
5/4/26 - 1100 59.7 66 49.2 N | 349 3.4 9.1 277 1,017.5 4 Good 0.00 0.00 46.2 60.9
5/4/26 - 1000 59.7 65 49.0 NE | 43 2.0 7.3 412 1,017.0 4 Good 0.00 0.00 46.2 60.9
5/4/26 - 0900 56.7 76 50.1 NW | 319 1.3 3.5 339 1,017.6 4 Good 0.00 0.00 46.2 59.4
5/4/26 - 0800 52.1 90 50.2 SW | 216 2.2 4.2 190 1,017.9 3 Good 0.00 0.00 46.2 55.4
5/4/26 - 0700 47.1 95 46.7 SW | 230 2.4 5.0 31 1,018.0 3 Good 0.00 0.00 46.2 52.0
5/4/26 - 0600 48.0 93 47.1 S | 186 3.6 6.3 0 1,017.4 3 Good 0.00 0.00 46.8 52.0
5/4/26 - 0500 48.2 95 47.9 S | 188 3.4 6.2 0 1,017.4 3 Good 0.00 0.00 46.8 52.0
5/4/26 - 0400 47.3 94 46.8 SE | 129 2.0 5.1 0 1,017.5 3 Good 0.00 0.00 46.8 52.0
5/4/26 - 0300 49.0 90 47.2 SE | 142 2.8 5.8 0 1,017.4 4 Good 0.00 0.00 47.2 52.0
5/4/26 - 0200 50.8 86 47.8 S | 190 2.5 6.3 0 1,017.4 4 Good 0.00 0.00 49.6 52.0
5/4/26 - 0100 52.1 82 47.8 WSW | 256 2.5 7.3 0 1,017.8 4 Good 0.00 0.00 50.8 64.2
5/4/26 - 0000 53.8 79 48.2 SW | 220 4.4 11.1 0 1,017.5 4 Good 0.00 0.00 53.0 64.2
5/3/26 - 2300 54.1 79 48.7 SW | 214 4.5 12.4 0 1,017.4 4 Good 0.00 0.00 53.5 64.2
5/3/26 - 2200 53.9 80 48.9 SW | 228 6.9 17.0 0 1,017.1 5 Good 0.00 0.00 53.6 64.2
5/3/26 - 2100 54.6 75 47.8 SW | 221 6.0 16.0 0 1,016.6 5 Good 0.00 0.00 53.6 64.2
5/3/26 - 2000 57.2 66 47.0 SW | 233 9.6 18.7 57 1,015.6 5 Good 0.00 0.00 53.6 64.2
5/3/26 - 1900 60.1 63 48.3 SW | 235 10.5 22.9 242 1,015.1 7 Good 0.00 0.00 53.6 64.2
Max 63.2 95 51.6 - 10.5 22.9 848 1,018.7 7 - 0.01 0.01 53.6 65.5
Avg 56.0 76 49.0 - 4.3 9.9 138 1,017.6 4 - 0.00 - - -
Min 47.1 60 46.2 - 0.5 2.1 0 1,015.1 3 - 0.00 0.00 46.2 52.0
Total - - - - - - - - - - 0.01 - - -